Paso Robles, CA

2:29 AM PST on November 15, 2019 (GMT -0800)
Paso Robles Municipal

Weather History for KPRB - October, 2019

Change the Weather History Date:

Tuesday, October 22, 2019

  Actual Average Record
Temperature  
Mean Temperature 68 °F 60 °F  
Max Temperature 91 °F 77 °F 94 °F (1965)
Min Temperature 45 °F 43 °F 28 °F (1996)
Degree Days  
Heating Degree Days 0 5  
Month to date heating degree days 85 77  
Since 1 July heating degree days 111 109  
Cooling Degree Days 3 0  
Month to date cooling degree days 16 34  
Year to date cooling degree days 1051 925  
Growing Degree Days 18 (Base 50)    
Moisture  
Dew Point 43 °F    
Average Humidity 47    
Maximum Humidity 76    
Minimum Humidity 18    
Precipitation  
Precipitation 0.00 in 0.02 in 0.62 in (1987)
Month to date precipitation 0.00 0.35  
Year to date precipitation 11.28 9.47  
Sea Level Pressure  
Sea Level Pressure 30.11 in    
Wind  
Wind Speed 3 mph ()    
Max Wind Speed 15 mph    
Max Gust Speed 23 mph    
Visibility 10.0 miles    
Events      
T = Trace of Precipitation, MM = Missing Value Source: Averaged Metar Reports

Daily Weather History Graph

Daily Weather History Graph

Search for Another Location

Airport or City:

Astronomy

Oct. 22, 2019 Rise Set
Actual Time 7:15 AM PDT 6:18 PM PDT
Civil Twilight 6:49 AM PDT 6:44 PM PDT
Nautical Twilight 6:19 AM PDT 7:14 PM PDT
Astronomical Twilight 5:49 AM PDT 7:43 PM PDT
Moon 12:47 AM PDT (10/22) 3:16 PM PDT (10/22)
Length of Visible Light 11h 55m
Length of Day
11h 03m
Last Quarter, 36% of the Moon is Illuminated
Oct 22
Last Quarter
Oct 27
New
Nov 4
First Quarter
Nov 12
Full
Nov 19
Last Quarter

Hourly Weather History & Observations

Time (PDT) Temp. Dew Point Humidity Pressure Visibility Wind Dir Wind Speed Gust Speed Precip Events Conditions
12:53 AM 57.9 °F 42.1 °F 56% 30.17 in 10.0 mi NE 4.6 mph - N/A   Clear
1:53 AM 54.0 °F 42.1 °F 64% 30.17 in 10.0 mi ENE 4.6 mph - N/A   Clear
2:53 AM 51.1 °F 39.9 °F 66% 30.16 in 10.0 mi NNW 3.5 mph - N/A   Clear
3:53 AM 51.1 °F 41.0 °F 68% 30.16 in 10.0 mi NE 3.5 mph - N/A   Clear
4:53 AM 48.9 °F 39.9 °F 71% 30.16 in 10.0 mi Calm Calm - N/A   Clear
5:53 AM 48.0 °F 39.0 °F 71% 30.18 in 10.0 mi Calm Calm - N/A   Clear
6:53 AM 46.0 °F 37.9 °F 73% 30.19 in 10.0 mi Calm Calm - N/A   Clear
7:53 AM 45.0 °F 37.9 °F 76% 30.20 in 10.0 mi Calm Calm - N/A   Clear
8:53 AM 57.0 °F 43.0 °F 59% 30.22 in 10.0 mi Calm Calm - N/A   Clear
9:53 AM 64.0 °F 44.1 °F 48% 30.21 in 10.0 mi NNE 3.5 mph - N/A   Clear
10:53 AM 71.1 °F 45.0 °F 39% 30.18 in 10.0 mi Variable 4.6 mph - N/A   Clear
11:53 AM 79.0 °F 45.0 °F 30% 30.16 in 10.0 mi NNW 4.6 mph - N/A   Clear
12:53 PM 82.9 °F 45.0 °F 26% 30.12 in 10.0 mi Variable 3.5 mph - N/A   Clear
1:53 PM 86.0 °F 44.1 °F 23% 30.07 in 10.0 mi Calm Calm - N/A   Clear
2:53 PM 90.0 °F 41.0 °F 18% 30.04 in 10.0 mi Calm Calm - N/A   Clear
3:53 PM 91.0 °F 42.1 °F 18% 30.03 in 10.0 mi East 9.2 mph - N/A   Clear
4:53 PM 88.0 °F 43.0 °F 21% 30.02 in 10.0 mi East 12.7 mph - N/A   Clear
5:53 PM 82.9 °F 45.0 °F 26% 30.00 in 10.0 mi East 12.7 mph - N/A   Clear
6:53 PM 75.9 °F 44.1 °F 32% 30.02 in 10.0 mi East 8.1 mph - N/A   Clear
7:53 PM 71.1 °F 44.1 °F 38% 30.03 in 10.0 mi SSW 3.5 mph - N/A   Clear
8:53 PM 70.0 °F 45.0 °F 41% 30.04 in 10.0 mi ESE 3.5 mph - N/A   Clear
9:53 PM 62.1 °F 43.0 °F 50% 30.06 in 10.0 mi NE 5.8 mph - N/A   Clear
10:53 PM 60.1 °F 44.1 °F 55% 30.05 in 10.0 mi Variable 3.5 mph - N/A   Clear
11:53 PM 57.9 °F 43.0 °F 58% 30.05 in 10.0 mi East 5.8 mph - N/A   Clear